GW6518 Weather Reports


Display with metric or nautical units.
time (UTC)temp
F
wind
direction
speed
MPH
gust
MPH
rain 1hr
in
rain 24hr
in
rain mn
in
humidity
%
barometer
mb
20260502223508 67 15 8.0 14.0 0.00 0.00 0.00 32 1016.5
20260502223026 67 24 8.0 14.0 0.00 0.00 0.00 31 1016.5
20260502222509 67 51 10.0 16.0 0.00 0.00 0.00 31 1016.6
20260502222004 67 70 11.0 15.0 0.00 0.00 0.00 31 1016.6
20260502221510 67 74 5.0 17.0 0.00 0.00 0.00 31 1016.7
20260502221004 67 1 8.0 17.0 0.00 0.00 0.00 32 1016.9
20260502220507 68 30 12.0 19.0 0.00 0.00 0.00 32 1017.0
20260502220018 68 5 15.0 19.0 0.00 0.00 0.00 32 1016.9
20260502215506 67 46 9.0 14.0 0.00 0.00 0.00 33 1017.0
20260502215008 67 46 9.0 14.0 0.00 0.00 0.00 32 1017.1
20260502214534 67 70 9.0 13.0 0.00 0.00 0.00 33 1017.1
20260502214007 67 62 8.0 13.0 0.00 0.00 0.00 34 1017.2
20260502213507 66 10 6.0 15.0 0.00 0.00 0.00 36 1017.3
20260502213029 65 61 9.0 15.0 0.00 0.00 0.00 35 1017.2
20260502212508 66 46 13.0 15.0 0.00 0.00 0.00 34 1017.3
20260502212009 66 60 9.0 17.0 0.00 0.00 0.00 34 1017.4
20260502211528 65 309 1.0 17.0 0.00 0.00 0.00 33 1017.4
20260502211003 65 359 11.0 16.0 0.00 0.00 0.00 35 1017.4
20260502210504 66 22 8.0 16.0 0.00 0.00 0.00 33 1017.4
20260502210025 66 26 10.0 16.0 0.00 0.00 0.00 33 1017.5
20260502205509 67 32 10.0 16.0 0.00 0.00 0.00 34 1017.4
20260502205006 66 32 3.0 12.0 0.00 0.00 0.00 35 1017.6
20260502204520 66 58 7.0 14.0 0.00 0.00 0.00 34 1017.6
20260502204008 65 53 7.0 16.0 0.00 0.00 0.00 33 1017.7
20260502203510 66 50 11.0 16.0 0.00 0.00 0.00 34 1017.7
20260502203022 66 60 6.0 10.0 0.00 0.00 0.00 35 1017.8
20260502202506 67 68 3.0 7.0 0.00 0.00 0.00 33 1017.8
20260502202008 67 61 0.0 14.0 0.00 0.00 0.00 33 1017.8
20260502201527 67 356 7.0 15.0 0.00 0.00 0.00 32 1017.9
20260502201010 66 45 9.0 15.0 0.00 0.00 0.00 32 1017.9
20260502200509 66 28 6.0 17.0 0.00 0.00 0.00 34 1018.0
20260502200024 66 21 4.0 17.0 0.00 0.00 0.00 33 1018.1
20260502195506 66 53 7.0 15.0 0.00 0.00 0.00 34 1018.0
20260502195006 66 313 10.0 13.0 0.00 0.00 0.00 33 1018.1
20260502194516 66 325 8.0 13.0 0.00 0.00 0.00 34 1018.1
20260502194006 66 333 7.0 11.0 0.00 0.00 0.00 34 1018.2
20260502193511 65 350 4.0 14.0 0.00 0.00 0.00 34 1018.2
20260502193005 64 1 6.0 14.0 0.00 0.00 0.00 36 1018.4
20260502192505 64 36 10.0 15.0 0.00 0.00 0.00 37 1018.4
20260502192002 65 15 12.0 15.0 0.00 0.00 0.00 35 1018.5
20260502191506 65 39 9.0 14.0 0.00 0.00 0.00 35 1018.5
20260502191004 65 84 6.0 14.0 0.00 0.00 0.00 35 1018.5
20260502190504 65 70 9.0 14.0 0.00 0.00 0.00 36 1018.5
20260502190018 65 31 7.0 14.0 0.00 0.00 0.00 35 1018.6
20260502185507 65 37 10.0 15.0 0.00 0.00 0.00 35 1018.7
20260502185004 65 32 9.0 15.0 0.00 0.00 0.00 34 1018.7
20260502184514 66 10 7.0 10.0 0.00 0.00 0.00 33 1018.7
20260502184005 66 17 1.0 14.0 0.00 0.00 0.00 33 1018.8
20260502183506 65 332 6.0 14.0 0.00 0.00 0.00 34 1018.8
20260502183018 65 54 4.0 10.0 0.00 0.00 0.00 33 1018.8
20260502182507 65 79 5.0 12.0 0.00 0.00 0.00 37 1018.8
20260502182006 65 67 9.0 12.0 0.00 0.00 0.00 36 1018.9
20260502181504 65 62 6.0 18.0 0.00 0.00 0.00 35 1018.9
20260502181003 65 68 10.0 18.0 0.00 0.00 0.00 35 1019.0
20260502180506 65 46 6.0 14.0 0.00 0.00 0.00 36 1019.0
20260502170503 63 39 12.0 22.0 0.00 0.00 0.00 36 1019.0
20260502164003 64 83 10.0 13.0 0.00 0.00 0.00 38 1019.1
20260502163503 64 65 6.0 10.0 0.00 0.00 0.00 39 1019.2
20260502163019 64 68 1.0 5.0 0.00 0.00 0.00 37 1019.2
20260502162504 64 327 1.0 4.0 0.00 0.00 0.00 39 1019.2
20260502162008 63 21 0.0 5.0 0.00 0.00 0.00 39 1019.2
20260502161520 62 21 1.0 5.0 0.00 0.00 0.00 39 1019.2
20260502161007 62 107 3.0 5.0 0.00 0.00 0.00 39 1019.2
20260502160508 61 115 1.0 3.0 0.00 0.00 0.00 40 1019.2
20260502152007 55 247 2.0 5.0 0.00 0.00 0.00 46 1019.2
20260502151522 54 264 1.0 5.0 0.00 0.00 0.00 46 1019.2
20260502151006 53 285 2.0 7.0 0.00 0.00 0.00 48 1019.1
20260502150508 52 238 3.0 7.0 0.00 0.00 0.00 48 1019.1
20260502130505 41 155 8.0 12.0 0.00 0.00 0.00 64 1018.0
20260502123512 37 114 2.0 8.0 0.00 0.00 0.00 70 1017.3
20260502123028 36 216 4.0 8.0 0.00 0.00 0.00 69 1017.0
20260502122512 36 176 4.0 7.0 0.00 0.00 0.00 68 1017.0
20260502122011 36 139 3.0 8.0 0.00 0.00 0.00 70 1016.8
20260502121526 35 214 6.0 8.0 0.00 0.00 0.00 70 1016.8
20260502121010 36 223 5.0 8.0 0.00 0.00 0.00 70 1016.7
20260502120506 35 210 6.0 8.0 0.00 0.00 0.00 73 1016.8
20260502115504 33 240 5.0 9.0 0.00 0.00 0.00 75 1016.4
20260502115007 32 212 7.0 9.0 0.00 0.00 0.00 74 1016.5
20260502114529 35 221 6.0 7.0 0.00 0.00 0.00 67 1016.4
20260502114005 37 155 4.0 5.0 0.00 0.00 0.00 65 1016.3
20260502113507 37 315 0.0 3.0 0.00 0.00 0.00 65 1016.3
20260502113025 37 315 1.0 3.0 0.00 0.00 0.00 65 1016.3
20260502112507 36 315 2.0 3.0 0.00 0.00 0.00 66 1016.4
20260502112009 36 315 0.0 2.0 0.00 0.00 0.00 64 1016.4
20260502111526 38 61 0.0 4.0 0.00 0.00 0.00 63 1016.4
20260502111011 38 61 1.0 4.0 0.00 0.00 0.00 63 1016.4
20260502110510 37 12 1.0 2.0 0.00 0.00 0.00 65 1016.4
20260502110028 37 12 2.0 2.0 0.00 0.00 0.00 64 1016.3
20260502105512 37 12 1.0 6.0 0.00 0.00 0.00 64 1016.3
20260502105004 37 12 2.0 6.0 0.00 0.00 0.00 64 1016.2
20260502104521 37 11 5.0 6.0 0.00 0.00 0.00 64 1016.2
20260502104005 37 39 4.0 5.0 0.00 0.00 0.00 64 1016.1
20260502103512 37 335 2.0 5.0 0.00 0.00 0.00 64 1016.0
20260502103005 37 107 3.0 5.0 0.00 0.00 0.00 70 1016.0
20260502102503 35 346 3.0 7.0 0.00 0.00 0.00 69 1016.0
20260502102003 34 68 6.0 7.0 0.00 0.00 0.00 72 1015.9
20260502101010 33 48 6.0 7.0 0.00 0.00 0.00 74 1016.1
20260502100504 35 72 4.0 6.0 0.00 0.00 0.00 70 1016.0
20260502091504 38 218 5.0 8.0 0.00 0.00 0.00 70 1015.1
20260502091003 38 213 7.0 8.0 0.00 0.00 0.00 70 1015.0
20260502090504 38 223 6.0 7.0 0.00 0.00 0.00 72 1015.0
20260502071516 49 249 1.0 5.0 0.00 0.00 0.00 43 1014.7
20260502071006 52 339 2.0 3.0 0.00 0.00 0.00 41 1014.7
20260502070506 53 339 2.0 3.0 0.00 0.00 0.00 38 1014.7
20260502070024 53 339 1.0 2.0 0.00 0.00 0.00 39 1014.7
20260502065507 53 339 0.0 2.0 0.00 0.00 0.00 41 1014.7
20260502065008 53 339 0.0 3.0 0.00 0.00 0.00 41 1014.6
20260502064512 53 3 0.0 6.0 0.00 0.00 0.00 42 1014.5
20260502064002 53 352 0.0 6.0 0.00 0.00 0.00 42 1014.4
20260502063504 53 31 4.0 6.0 0.00 0.00 0.00 42 1014.5
20260502063018 52 46 2.0 3.0 0.00 0.00 0.00 42 1014.4
20260502062502 51 46 0.0 2.0 0.00 0.00 0.00 44 1014.4
20260502062009 51 46 0.0 2.0 0.00 0.00 0.00 44 1014.4
20260502061512 50 46 0.0 2.0 0.00 0.00 0.00 45 1014.4
20260502061006 50 46 0.0 2.0 0.00 0.00 0.00 47 1014.4
20260502060504 50 46 0.0 4.0 0.00 0.00 0.00 49 1014.5
20260502060031 50 46 1.0 4.0 0.00 0.00 0.00 47 1014.4
20260502055507 51 360 2.0 4.0 0.00 0.00 0.00 44 1014.4
20260502055009 52 358 1.0 5.0 0.00 0.00 0.00 43 1014.4
20260502054526 55 203 1.0 6.0 0.00 0.00 0.00 40 1014.3
20260502054007 55 200 5.0 7.0 0.00 0.00 0.00 37 1014.3
20260502053511 55 189 4.0 8.0 0.00 0.00 0.00 37 1014.3
20260502053025 55 196 6.0 8.0 0.00 0.00 0.00 38 1014.3
20260502052504 57 213 6.0 7.0 0.00 0.00 0.00 36 1014.3
20260502052004 57 198 5.0 6.0 0.00 0.00 0.00 36 1014.3
20260502051511 58 161 3.0 6.0 0.00 0.00 0.00 35 1014.3
20260502051006 59 165 2.0 4.0 0.00 0.00 0.00 32 1014.3
20260502050503 59 161 3.0 5.0 0.00 0.00 0.00 33 1014.3
20260502050021 58 160 3.0 5.0 0.00 0.00 0.00 34 1014.3
20260502045508 55 91 1.0 3.0 0.00 0.00 0.00 36 1014.5
20260502045006 54 8 1.0 8.0 0.00 0.00 0.00 39 1014.6
20260502044522 52 8 3.0 9.0 0.00 0.00 0.00 44 1014.6
20260502044006 49 356 8.0 9.0 0.00 0.00 0.00 49 1014.6
20260502043510 50 345 3.0 7.0 0.00 0.00 0.00 47 1014.3
20260502043029 49 257 3.0 4.0 0.00 0.00 0.00 48 1014.2
20260502042511 49 286 4.0 4.0 0.00 0.00 0.00 49 1014.1
20260502042011 49 299 3.0 3.0 0.00 0.00 0.00 48 1014.1
20260502041533 50 276 2.0 3.0 0.00 0.00 0.00 47 1014.1
20260502041002 51 276 3.0 4.0 0.00 0.00 0.00 45 1014.1
20260502040504 51 214 3.0 4.0 0.00 0.00 0.00 45 1014.0
20260502040021 51 264 3.0 7.0 0.00 0.00 0.00 44 1014.1
20260502035507 51 264 2.0 7.0 0.00 0.00 0.00 46 1014.1
20260502035007 51 250 6.0 7.0 0.00 0.00 0.00 47 1014.1
20260502034518 50 244 3.0 3.0 0.00 0.00 0.00 49 1014.0
20260502034005 50 278 2.0 3.0 0.00 0.00 0.00 48 1014.0
20260502033508 53 277 2.0 3.0 0.00 0.00 0.00 41 1014.0
20260502033027 55 217 0.0 3.0 0.00 0.00 0.00 40 1014.0
20260502032507 55 187 0.0 4.0 0.00 0.00 0.00 39 1014.0
20260502032010 56 168 2.0 4.0 0.00 0.00 0.00 38 1014.0
20260502031526 58 180 1.0 4.0 0.00 0.00 0.00 35 1014.0
20260502031011 60 186 1.0 4.0 0.00 0.00 0.00 33 1013.9
20260502030511 61 185 2.0 4.0 0.00 0.00 0.00 29 1013.9
20260502030026 62 178 3.0 4.0 0.00 0.00 0.00 27 1013.8
20260502025504 62 207 1.0 4.0 0.00 0.00 0.00 29 1013.8
20260502025004 63 207 3.0 4.0 0.00 0.00 0.00 27 1013.6
20260502024516 64 207 0.0 2.0 0.00 0.00 0.00 25 1013.7
20260502024006 66 207 0.0 5.0 0.00 0.00 0.00 23 1013.6
20260502023505 66 207 1.0 6.0 0.00 0.00 0.00 22 1013.7
20260502023022 66 207 5.0 6.0 0.00 0.00 0.00 21 1013.6
20260502022507 66 225 3.0 4.0 0.00 0.00 0.00 22 1013.6
20260502022007 67 309 2.0 3.0 0.00 0.00 0.00 21 1013.7
20260502021522 68 309 3.0 3.0 0.00 0.00 0.00 20 1013.7
20260502021008 69 309 3.0 3.0 0.00 0.00 0.00 19 1013.7
20260502020508 71 309 2.0 3.0 0.00 0.00 0.00 17 1013.7
20260502020033 72 309 2.0 3.0 0.00 0.00 0.00 16 1013.7
20260502015510 73 309 2.0 2.0 0.00 0.00 0.00 16 1013.7
20260502015007 73 309 1.0 3.0 0.00 0.00 0.00 15 1013.7
20260502014529 73 309 2.0 4.0 0.00 0.00 0.00 16 1013.7
20260502014003 73 317 2.0 4.0 0.00 0.00 0.00 17 1013.7
20260502013504 73 312 4.0 6.0 0.00 0.00 0.00 17 1013.8
20260502013018 73 307 4.0 10.0 0.00 0.00 0.00 17 1013.7
20260502012507 74 309 4.0 10.0 0.00 0.00 0.00 17 1013.8
20260502012011 74 315 8.0 10.0 0.00 0.00 0.00 16 1013.8
20260502011524 74 333 5.0 10.0 0.00 0.00 0.00 15 1013.8
20260502011007 74 312 6.0 10.0 0.00 0.00 0.00 16 1013.9
20260502010507 75 303 6.0 11.0 0.00 0.00 0.00 16 1013.9
20260502010030 75 314 7.0 11.0 0.00 0.00 0.00 15 1014.0
20260502005511 75 310 7.0 11.0 0.00 0.00 0.00 16 1014.0
20260502005008 75 311 8.0 12.0 0.00 0.00 0.00 16 1014.0
20260502004531 75 311 9.0 14.0 0.00 0.00 0.00 16 1014.1
20260502004008 75 325 9.0 16.0 0.00 0.00 0.00 16 1014.1
20260502003507 75 312 11.0 18.0 0.00 0.00 0.00 15 1014.1
20260502003026 75 314 13.0 18.0 0.00 0.00 0.00 16 1014.1
20260502002508 76 336 6.0 8.0 0.00 0.00 0.00 18 1014.1
20260502002010 75 349 5.0 15.0 0.00 0.00 0.00 18 1014.1
20260502001520 75 356 5.0 15.0 0.00 0.00 0.00 17 1014.1
20260502001002 75 345 12.0 15.0 0.00 0.00 0.00 17 1014.1
20260502000504 76 311 6.0 13.0 0.00 0.00 0.00 17 1013.9
20260502000006 75 257 9.0 12.0 0.00 0.00 0.00 16 1014.1
20260501235504 76 293 7.0 12.0 0.00 0.00 0.00 17 1014.2
20260501235003 76 281 7.0 11.0 0.00 0.00 0.00 16 1014.2
20260501234511 76 290 5.0 13.0 0.00 0.00 0.00 17 1014.2
20260501234008 76 298 8.0 14.0 0.00 0.00 0.00 17 1014.3
20260501233502 76 320 10.0 14.0 0.00 0.00 0.00 17 1014.3
20260501233011 76 290 6.0 15.0 0.00 0.00 0.00 16 1014.3
20260501232509 75 281 8.0 15.0 0.00 0.00 0.00 16 1014.4
20260501232010 75 341 9.0 15.0 0.00 0.00 0.00 16 1014.4
20260501231520 75 331 12.0 15.0 0.00 0.00 0.00 16 1014.5
20260501231007 76 295 7.0 14.0 0.00 0.00 0.00 17 1014.5
20260501230511 76 311 6.0 10.0 0.00 0.00 0.00 16 1014.5
20260501230025 75 292 3.0 14.0 0.00 0.00 0.00 17 1014.6
20260501225508 75 310 9.0 14.0 0.00 0.00 0.00 16 1014.7
20260501225006 75 330 6.0 14.0 0.00 0.00 0.00 17 1014.7
20260501224508 75 319 9.0 14.0 0.00 0.00 0.00 16 1014.8
20260501224006 76 302 10.0 13.0 0.00 0.00 0.00 16 1014.8